Port Angeles, WA

3:31 AM PDT on August 30, 2016 (GMT -0700)
Fairchild International

Weather History for KCLM - June, 2013

Change the Weather History Date:

Saturday, June 29, 2013

  Actual Average Record
Temperature  
Mean Temperature 66 °F -  
Max Temperature 73 °F 65 °F 82 °F (1951)
Min Temperature 60 °F 49 °F 42 °F (1949)
Cooling Degree Days 1    
Growing Degree Days 16 (Base 50)    
Moisture  
Dew Point 57 °F    
Average Humidity 73    
Maximum Humidity 93    
Minimum Humidity 53    
Precipitation  
Precipitation 0.00 in - - ()
Sea Level Pressure  
Sea Level Pressure 30.08 in    
Wind  
Wind Speed 5 mph (WNW)    
Max Wind Speed 9 mph    
Max Gust Speed 17 mph    
Visibility 10 miles    
Events      
Averages and records for this station are not official NWS values.
T = Trace of Precipitation, MM = Missing Value Source: NWS Daily Summary

Daily Weather History Graph

Daily Weather History Graph

Search for Another Location

Airport or City:

Trip Planner

Search our weather history database for the weather conditions in past years. The results will help you decide how hot, cold, wet, or windy it might be!

Date:

Astronomy

Jun. 29, 2013 Rise Set
Actual Time 5:17 AM PDT 9:17 PM PDT
Civil Twilight 4:35 AM PDT 9:59 PM PDT
Nautical Twilight 3:38 AM PDT 10:56 PM PDT
Astronomical Twilight 2:01 AM PDT 12:32 AM PDT
Moon 12:16 AM PDT (6/29) 1:10 PM PDT (6/29)
Length of Visible Light 17h 23m
Length of Day
16h 00m
Waning Gibbous, 54% of the Moon is Illuminated
Jun 29
Waning Gibbous
Jun 29
Last Quarter
Jul 8
New
Jul 15
First Quarter
Jul 22
Full

Hourly Weather History & Observations

Time (PDT) Temp. Dew Point Humidity Pressure Visibility Wind Dir Wind Speed Gust Speed Precip Events Conditions
12:53 AM 62.1 °F 59.0 °F 90% 30.09 in 10.0 mi West 5.8 mph - N/A   Clear
1:53 AM 64.9 °F 59.0 °F 81% 30.10 in 10.0 mi WSW 8.1 mph 17.3 mph N/A   Clear
2:53 AM 62.1 °F 57.9 °F 86% 30.10 in 10.0 mi Calm Calm - N/A   Clear
3:53 AM 60.1 °F 57.9 °F 93% 30.09 in 10.0 mi Calm Calm - N/A   Clear
4:53 AM 62.1 °F 59.0 °F 90% 30.10 in 10.0 mi WSW 4.6 mph - N/A   Scattered Clouds
5:53 AM 61.0 °F 59.0 °F 93% 30.09 in 10.0 mi Calm Calm - N/A   Clear
6:53 AM 62.1 °F 59.0 °F 90% 30.10 in 10.0 mi West 4.6 mph - N/A   Clear
7:53 AM 66.9 °F 59.0 °F 76% 30.10 in 10.0 mi Calm Calm - N/A   Clear
8:53 AM 66.9 °F 57.9 °F 73% 30.11 in 10.0 mi NW 8.1 mph - N/A   Overcast
9:53 AM 70.0 °F 57.0 °F 63% 30.09 in 10.0 mi WNW 9.2 mph - N/A   Partly Cloudy
10:53 AM 71.1 °F 57.0 °F 61% 30.09 in 10.0 mi NNW 8.1 mph - N/A   Clear
11:53 AM 68.0 °F 55.9 °F 65% 30.11 in 10.0 mi NW 9.2 mph - N/A   Clear
12:53 PM 71.1 °F 57.9 °F 63% 30.10 in 10.0 mi NW 5.8 mph - N/A   Clear
1:53 PM 72.0 °F 57.9 °F 61% 30.09 in 10.0 mi North 6.9 mph - N/A   Clear
2:53 PM 72.0 °F 59.0 °F 64% 30.08 in 10.0 mi NNW 6.9 mph - N/A   Clear
3:53 PM 70.0 °F 59.0 °F 68% 30.07 in 10.0 mi WNW 8.1 mph - N/A   Clear
4:53 PM 70.0 °F 57.9 °F 65% 30.06 in 10.0 mi WNW 6.9 mph - N/A   Clear
5:53 PM 71.1 °F 57.9 °F 63% 30.04 in 10.0 mi NW 5.8 mph - N/A   Clear
6:53 PM 71.1 °F 57.0 °F 61% 30.04 in 10.0 mi NW 5.8 mph - N/A   Clear
7:53 PM 70.0 °F 52.0 °F 53% 30.03 in 10.0 mi WNW 5.8 mph - N/A   Clear
8:53 PM 66.9 °F 52.0 °F 59% 30.03 in 10.0 mi West 5.8 mph - N/A   Clear
9:53 PM 64.9 °F 53.1 °F 65% 30.04 in 10.0 mi WSW 5.8 mph - N/A   Clear
10:53 PM 62.1 °F 55.0 °F 78% 30.03 in 10.0 mi WSW 5.8 mph - N/A   Clear
11:53 PM 62.1 °F 57.0 °F 84% 30.02 in 10.0 mi WSW 4.6 mph - N/A   Clear